{"data":{"norad_id":56901,"epoch":"2026-09-19T18:56:53.646720Z","epoch_age_seconds":178844,"freshness":"STALE","line1":"1 56901U 23083AB  26262.78950980 -.00000064  00000+0  72014-5 0  9990","line2":"2 56901  43.0044  65.7611 0002276 268.7339  91.3252 15.27574880181468","mean_motion":15.2757488,"eccentricity":0.0002276,"inclination_deg":43.0044,"raan_deg":65.7611,"arg_perigee_deg":268.7339,"mean_anomaly_deg":91.3252,"bstar":7.2014e-6,"rev_number":18146,"period_min":94.267064669196,"perigee_km":481.50281775955,"apogee_km":484.62603664922,"semimajor_km":6861.2014272044,"source":"CELESTRAK","updated_at":"2026-09-21T09:00:33.524736Z"}}